q   3.8432856            (2000.0)            P               Q

n   0.07497143     Peri.  251.73632     +0.28899404     -0.95720274

a   5.5702181      Node   181.71701     +0.94847989     +0.28406400

e   0.3100296      Incl.   31.51891     -0.12987817     -0.05541266

P  13.15

From 109 observations 1998 Oct. 27-1999 Nov. 17, mean residual 0".66.



NAKANO

         **** Don't distribute anyone except personal use only ****

                (C) Copyright 1999 OAA/ComputingSection

write mail from CFAD0::NAKANO on 1999-11-22 03:07:15(JST).

 





    P/1998 U4 (Spahr) 

Epoch 1999 Mar. 3.0 TT = JDT 2451240.5  

T 1999 Feb. 26.63509 TT                                 Nakano

q   3.8432141            (2000.0)            P               Q

n   0.07496687     Peri.  251.77058     +0.28844800     -0.95736771

a   5.5704438      Node   181.71515     +0.94864214     +0.28352562

e   0.3100704      Incl.   31.51842     -0.12990701     -0.05531999

P  13.15

From 86 observations 1998 Oct. 27-1999 Feb. 14, mean residual 0".63.

 

    P/1998 U4 (Spahr) 

Epoch 1999 Mar. 3.0 TT = JDT 2451240.5  

T 1999 Feb. 26.95770 TT                                 Nakano

q   3.8428027            (2000.0)            P               Q

n   0.07495845     Peri.  251.82452     +0.28760355     -0.95762234

a   5.5708610      Node   181.71113     +0.94889439     +0.28269544

e   0.3101959      Incl.   31.51659     -0.12993706     -0.05516109

P  13.15



    P/1998 U4 (Spahr) 

Epoch 1999 Mar. 3.0 TT = JDT 2451240.5  

T 1999 Feb. 27.40255 TT                                 Nakano

q   3.8421432            (2000.0)            P               Q

n   0.07495056     Peri.  251.90130     +0.28643049     -0.95797504

a   5.5712520      Node   181.70335     +0.94924479     +0.28154575

e   0.3103627      Incl.   31.51309     -0.12996886     -0.05491638

P  13.15

From 64 observations 1998 Oct. 27-Dec. 24, mean residual 0".61.



    P/1998 U4 (Spahr) 

T 1999 Feb. 27.55142 TT                                 Nakano

q   3.8409112            (2000.0)            P               Q

n   0.07493990     Peri.  251.94950     +0.28593052     -0.95812763

a   5.5717800      Node   181.68177     +0.94940572     +0.28108572

e   0.3106492      Incl.   31.50314     -0.12989423     -0.05461014

P  13.15

From 47 observations 1998 Oct. 27-Nov. 26.



–ß‚è‚Ü‚·B